Powrót do katalogu

ABS 3

AGILA 2

AktywnyŁącznośćGEO
NORAD 24901·PAYLOAD·🇨🇳 China

Wystrzelony Aug 19, 1997 z Xichang Satellite Launch Center

Loading…

TLE

ŚwieżeSource: Space-Track

Epoka: Sep 14, 2026, 12:30 UTC

1 24901U 97042A   26257.52150623 -.00000067  00000-0  00000-0 0  9998
2 24901  11.3698  41.9647 0004679 175.1789 155.9421  0.99263182106117

Śledź ABS 3 w czasie rzeczywistym z AllMySat

Download on the App Store